RH
35 34 34 34 35 36 37 38 39 39 40 41 41 41 40 39 39 39 40 40 41 42 42 43 42 42 42 42 42 41 41 41 40 40 39 39 39 39 40 40 41 42 43 43 44 44 44 44 43 42 41 40 40 41 42 43 44 45 46 45 44 42 41 38 37 35 34 33 33
35 34 34 35 35 37 37 38 39 39 40 40 40 40 39 39 39 40 40 41 42 42 42 42 42 41 41 41 40 40 39 39 38 38 38 38 38 39 39 40 41 42 42 43 44 44 44 44 42 41 40 39 39 39 40 41 42 43 43 42 41 40 38 36 35 34 33 33 33
36 35 35 35 36 37 38 38 38 39 39 40 40 40 40 39 40 41 41 41 41 42 42 42 41 41 40 40 39 38 38 37 37 37 37 38 38 39 39 39 40 41 41 43 43 44 44 43 41 40 38 37 37 38 38 39 39 40 40 40 39 38 36 35 34 33 33 33 34
37 36 35 35 36 37 37 37 38 38 39 40 40 40 40 40 40 41 41 41 41 41 41 41 40 40 39 39 38 37 37 36 36 37 37 37 37 38 38 38 39 40 41 42 43 43 43 42 40 39 37 37 37 37 37 38 38 39 39 38 37 36 35 34 33 33 33 34 34
38 36 36 35 36 37 37 37 38 39 39 40 40 40 40 40 40 40 40 40 40 39 39 39 39 39 38 37 37 36 36 36 36 36 36 36 37 37 37 37 38 39 40 41 42 42 42 41 39 38 37 36 36 37 37 38 38 39 38 37 35 34 33 33 33 33 33 34 34
38 37 36 36 36 37 38 39 39 40 39 40 40 39 39 39 39 40 39 39 38 38 37 38 38 37 37 36 36 36 35 35 36 36 36 36 36 36 36 36 38 38 39 40 41 42 42 40 38 37 36 36 36 37 38 38 39 38 38 36 34 33 32 32 33 33 34 34 34
39 38 37 36 37 38 39 40 41 41 41 40 40 39 39 39 39 39 38 38 37 36 35 35 35 36 35 35 35 35 35 35 35 35 35 35 36 36 36 37 37 37 38 39 41 41 41 39 37 36 35 36 37 37 38 39 38 38 37 35 34 32 31 31 32 33 34 34 34
39 38 37 36 37 38 40 41 42 42 41 41 40 39 39 38 38 38 38 37 36 34 33 33 34 34 34 34 34 34 34 34 34 34 35 35 35 36 36 37 37 37 37 39 40 41 40 39 37 35 35 35 36 37 38 38 37 37 35 34 33 32 31 30 31 32 33 34 35
39 37 36 36 37 38 39 41 42 42 41 40 40 39 39 39 39 39 38 37 35 33 32 32 32 33 33 33 34 34 34 34 34 34 35 35 35 36 37 37 36 37 37 39 40 40 40 38 37 35 35 35 36 37 37 37 36 35 34 33 32 31 31 30 31 32 33 34 35
38 37 36 35 36 37 39 41 41 42 41 40 40 39 39 39 39 39 38 37 34 32 31 31 31 32 33 33 34 34 34 34 34 35 35 35 36 36 37 37 36 37 37 39 40 40 40 38 37 35 35 35 36 36 36 36 35 34 33 32 32 31 31 31 31 33 34 35 36
37 35 35 34 35 36 38 40 41 41 41 40 40 40 39 39 39 39 38 36 33 32 31 31 31 32 32 33 34 34 34 35 35 35 35 36 36 36 37 37 36 37 37 38 39 40 40 38 37 35 35 35 35 35 35 35 33 33 32 32 32 32 32 32 33 33 35 36 37
35 34 33 33 33 35 36 38 40 41 41 40 40 39 39 39 39 39 38 36 33 31 31 31 31 31 32 33 34 34 35 35 35 36 36 36 36 37 37 36 36 37 37 38 39 40 39 39 37 35 35 34 34 34 34 34 33 32 32 32 32 32 32 33 34 35 36 37 39
34 33 32 32 32 33 34 36 38 40 40 39 39 39 39 39 39 39 38 36 34 32 31 31 31 31 32 33 33 34 34 35 35 35 36 36 36 36 37 36 36 37 37 38 39 39 39 39 37 36 34 34 34 33 33 33 33 33 32 32 32 33 33 33 34 36 37 38 41
34 33 32 31 31 32 33 34 37 38 39 38 38 38 38 38 38 38 38 36 35 33 32 31 31 32 32 33 33 34 34 34 35 35 35 35 35 36 36 36 36 37 37 38 39 39 40 39 38 36 34 33 33 32 33 33 33 33 33 33 33 33 33 34 35 36 38 40 43
34 33 32 31 31 31 31 32 35 37 38 37 37 37 37 38 38 38 38 37 36 34 33 31 31 32 33 34 34 34 35 35 35 35 35 35 35 35 36 36 36 36 37 38 39 39 39 39 38 36 34 33 32 32 33 33 33 33 34 34 34 34 34 35 36 38 39 42 46
34 33 32 31 30 30 30 30 33 35 36 37 37 37 36 37 38 38 38 38 37 35 34 32 32 32 33 34 35 35 36 36 35 35 35 35 35 35 35 35 36 36 37 37 38 39 39 39 39 37 35 33 32 33 33 33 33 34 34 35 35 35 36 37 38 40 42 45 50
35 34 32 31 30 29 29 29 31 33 35 36 37 36 36 37 37 37 38 38 37 36 35 33 33 33 34 35 35 36 36 37 37 36 36 35 35 35 35 35 36 36 36 37 38 39 39 40 39 38 36 33 33 34 34 34 34 35 35 35 36 36 37 39 40 42 46 50 54
36 34 33 31 30 29 28 28 29 31 34 36 36 37 37 37 37 37 38 38 37 37 35 34 33 34 34 35 36 36 37 37 37 37 37 36 36 36 36 36 36 36 37 37 38 39 40 41 41 39 37 35 35 35 35 35 35 36 36 36 36 37 39 40 42 45 49 53 56
36 35 33 31 30 29 28 28 29 31 33 35 36 37 37 37 37 37 37 37 37 37 36 34 34 34 35 35 36 36 37 37 38 38 38 38 38 38 38 37 37 38 38 39 39 40 41 43 43 41 39 37 36 36 36 36 36 36 36 36 37 38 40 42 45 48 51 54 58
37 36 34 32 30 29 28 28 29 30 32 34 35 36 37 38 38 38 37 37 37 37 36 35 35 35 35 35 36 36 36 37 38 38 39 40 40 40 40 39 40 40 40 40 41 42 43 44 43 42 39 38 37 36 36 36 36 36 36 36 37 39 42 44 47 50 53 57 62
38 37 35 33 31 29 28 28 29 30 31 33 35 36 37 38 38 37 37 37 37 37 37 36 35 35 35 35 35 36 36 37 37 39 40 41 42 42 42 41 41 42 42 42 42 43 44 45 43 42 40 38 37 37 36 36 35 35 36 37 39 41 44 47 50 53 56 61 66
40 38 36 34 32 30 29 29 29 30 31 32 34 35 36 37 37 37 37 37 38 37 37 36 35 35 35 35 35 36 36 36 37 39 40 41 42 43 43 43 43 43 43 43 42 43 44 44 43 42 40 38 37 36 36 36 35 36 37 38 41 43 46 49 52 55 60 65 68
42 40 38 35 33 31 30 29 29 30 31 32 33 34 35 36 36 37 37 37 37 37 36 36 35 35 35 35 35 36 36 37 38 39 40 41 42 43 43 43 44 44 44 43 43 43 44 44 43 42 40 38 37 36 36 35 36 36 38 40 42 44 47 50 54 58 62 66 67
46 43 40 37 35 33 31 29 29 29 30 31 32 33 34 35 36 36 37 37 37 36 36 35 35 35 35 35 36 36 37 37 38 39 41 42 42 42 43 44 45 45 45 44 44 44 44 44 44 42 40 38 37 36 35 35 36 37 39 41 44 46 50 53 57 61 64 66 66
50 46 43 39 37 34 32 30 29 29 29 30 32 33 34 34 35 35 35 36 35 35 34 34 34 34 35 36 36 36 37 38 39 40 41 42 42 43 43 45 46 46 46 46 45 45 45 45 44 42 40 38 36 36 36 36 38 39 41 43 46 49 53 57 60 63 65 66 66
54 50 46 43 39 36 34 32 30 29 29 30 31 32 33 34 34 34 34 34 33 33 33 33 34 34 35 36 36 37 37 38 39 41 42 43 43 43 44 45 47 47 48 48 47 47 47 46 44 42 39 37 36 36 37 38 39 41 43 45 48 52 56 61 64 65 66 66 66
58 54 50 47 43 40 37 34 32 31 30 30 31 31 32 33 33 33 33 32 32 32 32 33 34 35 35 36 37 37 38 39 41 42 43 43 43 44 45 46 48 48 49 50 50 50 49 47 44 42 40 37 37 37 38 40 41 42 44 47 51 55 60 64 66 67 66 66 67
63 59 55 51 47 44 40 37 35 33 32 31 31 31 31 32 32 32 31 31 31 32 32 33 34 35 36 37 37 38 39 40 42 43 44 45 45 45 46 47 49 49 50 52 53 53 51 48 45 42 40 38 38 39 41 41 42 44 46 50 54 58 62 65 66 67 67 66 66
67 63 60 55 52 48 45 41 38 36 34 33 32 32 32 32 31 31 31 31 32 32 33 34 35 37 38 39 39 39 40 41 43 44 45 46 46 47 47 49 50 50 52 54 57 57 54 50 46 43 41 40 41 42 43 43 44 46 49 54 58 61 64 66 66 66 66 66 66
71 68 64 60 57 53 50 46 43 40 37 35 34 34 33 32 32 32 32 32 33 34 35 36 38 39 40 41 41 42 42 43 44 45 46 47 47 48 49 50 51 51 53 55 59 60 57 52 47 44 42 43 44 44 44 44 46 49 53 57 61 64 66 66 66 65 65 65 65
73 71 69 66 62 59 55 52 48 44 41 38 37 35 35 34 34 34 34 34 35 36 37 39 41 42 43 43 43 44 44 45 46 47 47 48 48 49 50 51 52 52 54 56 60 61 58 53 48 46 45 46 46 46 45 46 49 53 57 61 64 65 65 65 65 64 65 65 65
74 73 72 70 68 65 61 58 54 50 46 42 40 38 38 37 36 36 36 37 38 39 40 42 44 44 45 45 45 46 46 47 47 48 48 49 49 50 51 52 53 53 54 57 59 60 57 52 49 48 48 49 48 47 47 48 52 56 60 63 65 65 64 63 63 64 65 65 64
76 75 74 73 72 70 68 65 61 56 52 48 45 43 41 40 39 39 39 39 40 41 43 44 45 46 46 47 47 47 48 48 49 49 49 50 50 51 52 53 54 55 56 57 57 56 54 51 49 50 51 52 50 48 48 50 54 58 62 64 64 63 62 62 63 64 65 64 63
78 77 76 75 74 74 73 71 68 64 59 55 51 48 46 44 43 43 42 42 43 44 45 46 47 48 49 49 50 50 50 50 50 50 50 50 51 52 53 54 55 56 57 56 56 54 52 50 51 53 54 54 51 50 51 53 57 61 63 64 63 62 62 63 64 65 64 63 61
78 77 77 76 76 76 75 74 72 69 66 62 58 55 51 49 48 47 46 46 46 47 48 49 50 51 52 52 52 51 51 51 51 51 51 51 52 53 54 55 57 57 57 56 54 53 52 52 54 57 58 56 53 52 54 57 61 63 63 63 62 62 63 65 65 65 64 62 60
78 78 77 77 77 77 77 76 75 73 70 68 64 61 58 55 53 51 50 49 50 50 51 52 53 54 54 53 53 52 52 51 52 52 52 53 53 54 55 56 58 58 57 56 54 53 53 55 58 60 60 57 55 55 57 60 62 63 62 62 63 64 65 66 65 64 62 60 58
78 78 77 77 78 79 78 78 76 75 73 71 69 67 64 61 58 56 54 53 53 53 54 55 55 55 55 54 53 53 53 53 53 53 53 54 55 56 56 57 58 58 57 55 54 54 56 59 62 63 63 61 60 61 62 63 63 63 63 64 65 66 66 66 64 63 61 59 57
77 78 78 78 79 80 80 80 78 77 75 74 72 71 68 66 63 60 59 57 56 56 57 57 57 57 56 55 54 54 54 54 54 55 55 55 56 57 57 57 57 57 56 55 55 57 60 64 67 68 67 66 67 67 66 66 65 65 66 66 67 66 66 64 63 61 59 57 54
76 77 78 79 80 81 82 82 81 80 78 76 75 73 72 69 66 64 62 61 59 59 59 59 59 58 57 56 56 55 55 55 56 56 57 58 59 59 59 58 57 57 57 57 58 61 65 70 72 72 71 71 71 71 70 68 68 68 68 68 67 66 64 63 61 60 58 55 51
74 76 77 79 80 82 83 84 84 83 81 79 77 76 74 71 69 67 65 64 63 62 61 60 60 59 58 57 56 56 56 57 58 60 61 62 63 63 62 62 61 61 61 62 64 68 72 76 76 76 75 75 74 73 72 71 70 69 68 68 66 65 63 62 60 58 56 52 49
74 75 77 78 80 82 84 85 86 85 84 82 81 79 77 74 72 70 68 67 65 64 63 62 61 60 59 58 58 58 58 59 62 65 66 68 68 68 68 67 66 66 67 68 71 74 77 79 79 78 78 77 76 75 74 72 70 69 67 67 65 64 62 60 59 56 53 50 47